Oakdale, LA

1:04 PM CDT on September 30, 2016 (GMT -0500)
Oakdale

Weather History for KACP - July, 2013

Change the Weather History Date:

Sunday, July 21, 2013

  Actual Average (KPOE) Record (KPOE)
Temperature  
Mean Temperature 78 °F -  
Max Temperature 87 °F 90 °F 102 °F (2000)
Min Temperature 68 °F 71 °F 68 °F (2004)
Cooling Degree Days 12    
Growing Degree Days 28 (Base 50)    
Moisture  
Dew Point 71 °F    
Average Humidity 84    
Maximum Humidity 97    
Minimum Humidity 63    
Precipitation  
Precipitation 0.00 in - - ()
Sea Level Pressure  
Sea Level Pressure 29.98 in    
Wind  
Wind Speed 2 mph (SSW)    
Max Wind Speed 14 mph    
Max Gust Speed 21 mph    
Visibility 9 miles    
Events Fog , Rain , Thunderstorm    
Averages and records for this station are not official NWS values.
T = Trace of Precipitation, MM = Missing Value Source: NWS Daily Summary

Daily Weather History Graph

Daily Weather History Graph

Search for Another Location

Airport or City:

Trip Planner

Search our weather history database for the weather conditions in past years. The results will help you decide how hot, cold, wet, or windy it might be!

Date:

Astronomy

Jul. 21, 2013 Rise Set
Actual Time 6:21 AM CDT 8:12 PM CDT
Civil Twilight 5:55 AM CDT 8:38 PM CDT
Nautical Twilight 5:22 AM CDT 9:11 PM CDT
Astronomical Twilight 4:48 AM CDT 9:45 PM CDT
Moon 7:13 PM CDT (7/21) 5:06 AM CDT (7/21)
Length of Visible Light 14h 43m
Length of Day
13h 50m
Waxing Gibbous, 98% of the Moon is Illuminated
Jul 21
Waxing Gibbous
Jul 22
Full
Jul 29
Last Quarter
Aug 6
New
Aug 14
First Quarter

Hourly Weather History & Observations

Time (CDT) Temp. Heat Index Dew Point Humidity Pressure Visibility Wind Dir Wind Speed Gust Speed Precip Events Conditions
12:15 AM 71.2 °F - 69.4 °F 94% 29.98 in 10.0 mi Calm Calm - N/A   Clear
12:35 AM 71.4 °F - 69.1 °F 92% 29.97 in 10.0 mi Calm Calm - N/A   Clear
12:55 AM 70.9 °F - 68.9 °F 93% 29.98 in 10.0 mi Calm Calm - N/A   Clear
1:15 AM 70.3 °F - 68.7 °F 95% 29.97 in 7.0 mi Calm Calm - N/A   Clear
1:35 AM 69.8 °F - 68.4 °F 95% 29.98 in 7.0 mi Calm Calm - N/A   Clear
1:55 AM 69.8 °F - 68.4 °F 95% 29.98 in 7.0 mi Calm Calm - N/A   Clear
2:15 AM 69.4 °F - 68.2 °F 96% 29.97 in 7.0 mi Calm Calm - N/A   Clear
2:35 AM 69.8 °F - 68.0 °F 94% 29.97 in 10.0 mi Calm Calm - N/A   Clear
2:55 AM 69.1 °F - 68.0 °F 96% 29.97 in 7.0 mi Calm Calm - N/A   Clear
3:15 AM 69.3 °F - 67.8 °F 95% 29.97 in 7.0 mi Calm Calm - N/A   Clear
3:35 AM 69.3 °F - 68.0 °F 96% 29.96 in 5.0 mi Calm Calm - N/A   Clear
3:55 AM 69.1 °F - 68.0 °F 96% 29.96 in 5.0 mi Calm Calm - N/A   Clear
4:15 AM 68.9 °F - 67.6 °F 96% 29.97 in 7.0 mi Calm Calm - N/A   Clear
4:35 AM 68.5 °F - 67.3 °F 96% 29.96 in 7.0 mi Calm Calm - N/A   Clear
4:55 AM 68.2 °F - 67.1 °F 96% 29.97 in 5.0 mi Calm Calm - N/A   Scattered Clouds
5:15 AM 68.4 °F - 67.1 °F 96% 29.97 in 4.0 mi Calm Calm - N/A   Overcast
5:35 AM 68.2 °F - 66.9 °F 96% 29.97 in 1.0 mi Calm Calm - N/A   Overcast
5:55 AM 68.0 °F - 66.9 °F 96% 29.98 in 4.0 mi Calm Calm - N/A   Mostly Cloudy
6:15 AM 68.2 °F - 66.9 °F 96% 29.98 in 4.0 mi Calm Calm - N/A   Overcast
6:35 AM 68.2 °F - 66.9 °F 96% 29.98 in 0.8 mi Calm Calm - N/A Thunderstorm Overcast
6:55 AM 68.9 °F - 67.8 °F 96% 29.98 in 0.2 mi Calm Calm - N/A Fog , Thunderstorm Fog
7:15 AM 70.7 °F - 69.8 °F 97% 29.99 in 5.0 mi Calm Calm - N/A   Overcast
7:35 AM 72.5 °F - 71.1 °F 95% 30.00 in 7.0 mi Calm Calm - N/A   Scattered Clouds
7:55 AM 75.4 °F - 73.2 °F 93% 30.00 in 10.0 mi Calm Calm - N/A   Scattered Clouds
8:15 AM 76.6 °F - 73.2 °F 89% 30.01 in 10.0 mi South 3.5 mph - N/A   Scattered Clouds
8:35 AM 78.4 °F - 74.1 °F 87% 30.01 in 10.0 mi SSW 4.6 mph - N/A   Scattered Clouds
8:55 AM 78.8 °F - 73.4 °F 83% 30.01 in 10.0 mi WSW 5.8 mph - N/A   Mostly Cloudy
9:15 AM 80.2 °F 84.2 °F 72.1 °F 76% 30.00 in 10.0 mi West 6.9 mph - N/A   Scattered Clouds
9:35 AM 80.8 °F 84.9 °F 71.8 °F 74% 30.00 in 10.0 mi SW 8.1 mph - N/A   Clear
9:55 AM 81.9 °F 86.2 °F 71.2 °F 70% 30.01 in 10.0 mi SW 4.6 mph - N/A   Clear
10:15 AM 81.7 °F 86.5 °F 72.1 °F 73% 30.01 in 10.0 mi SSW 6.9 mph - N/A   Clear
10:35 AM 81.7 °F 86.3 °F 71.8 °F 72% 30.02 in 10.0 mi South 4.6 mph - N/A   Clear
10:55 AM 84.0 °F 89.6 °F 72.0 °F 67% 30.02 in 10.0 mi South 6.9 mph - N/A   Scattered Clouds
11:15 AM 83.7 °F 89.4 °F 72.7 °F 69% 30.02 in 10.0 mi SW 9.2 mph - N/A   Scattered Clouds
11:35 AM 85.1 °F 91.1 °F 72.1 °F 65% 30.02 in 10.0 mi South 13.8 mph 17.3 mph N/A   Scattered Clouds
11:55 AM 85.8 °F 92.2 °F 72.5 °F 64% 30.01 in 10.0 mi SSW 10.4 mph 18.4 mph N/A   Scattered Clouds
12:15 PM 85.3 °F 91.5 °F 72.5 °F 65% 30.01 in 10.0 mi South 10.4 mph 16.1 mph N/A   Mostly Cloudy
1:15 PM 77.0 °F - 73.4 °F 89% 30.01 in 7.0 mi South 9.2 mph 19.6 mph N/A Rain Light Rain
1:35 PM 77.9 °F - 74.7 °F 90% 30.01 in 5.0 mi South 5.8 mph - N/A Rain Light Rain
1:55 PM 79.7 °F - 75.6 °F 87% 30.00 in 10.0 mi South 8.1 mph - N/A   Scattered Clouds
2:15 PM 80.8 °F 86.3 °F 74.7 °F 82% 30.00 in 10.0 mi South 6.9 mph - N/A   Scattered Clouds
2:35 PM 83.8 °F 91.4 °F 74.7 °F 74% 30.00 in 10.0 mi South 11.5 mph 20.7 mph N/A   Scattered Clouds
2:55 PM 81.5 °F 86.3 °F 72.7 °F 74% 29.99 in 10.0 mi SSW 9.2 mph - N/A   Scattered Clouds
3:15 PM 82.4 °F 88.4 °F 73.6 °F 75% 29.98 in 10.0 mi South 6.9 mph - N/A   Scattered Clouds
3:35 PM 83.1 °F 89.5 °F 73.8 °F 73% 29.97 in 10.0 mi South 5.8 mph - N/A   Scattered Clouds
3:55 PM 86.0 °F 92.6 °F 72.5 °F 64% 29.97 in 10.0 mi South 11.5 mph 17.3 mph N/A   Scattered Clouds
4:15 PM 87.4 °F 95.3 °F 73.2 °F 63% 29.97 in 10.0 mi SW 9.2 mph - N/A   Scattered Clouds
4:35 PM 83.8 °F 89.8 °F 72.9 °F 69% 29.97 in 10.0 mi WSW 4.6 mph - N/A   Scattered Clouds
4:55 PM 82.6 °F 88.1 °F 72.7 °F 72% 29.98 in 10.0 mi West 4.6 mph - N/A   Scattered Clouds
5:15 PM 84.6 °F 91.7 °F 73.8 °F 70% 29.96 in 10.0 mi WSW 4.6 mph - N/A   Scattered Clouds
5:35 PM 85.1 °F 91.1 °F 72.0 °F 65% 29.95 in 10.0 mi SW 6.9 mph 16.1 mph N/A   Clear
5:55 PM 84.6 °F 90.3 °F 72.1 °F 66% 29.95 in 10.0 mi SSW 9.2 mph - N/A   Scattered Clouds
6:15 PM 83.7 °F 88.9 °F 71.6 °F 67% 29.95 in 10.0 mi SSW 9.2 mph - N/A   Scattered Clouds
6:35 PM 81.9 °F 86.4 °F 71.8 °F 71% 29.95 in 10.0 mi SSW 3.5 mph - N/A   Clear
6:55 PM 80.4 °F 84.5 °F 72.1 °F 76% 29.95 in 10.0 mi Calm Calm - N/A   Clear
7:15 PM 79.5 °F - 72.7 °F 79% 29.96 in 10.0 mi Calm Calm - N/A   Clear
7:35 PM 79.0 °F - 72.9 °F 81% 29.97 in 10.0 mi Calm Calm - N/A   Clear
7:55 PM 78.4 °F - 72.5 °F 82% 29.98 in 10.0 mi Calm Calm - N/A   Clear
8:15 PM 77.9 °F - 72.7 °F 84% 29.98 in 10.0 mi South 3.5 mph - N/A   Scattered Clouds
8:35 PM 77.4 °F - 72.7 °F 85% 29.98 in 10.0 mi Calm Calm - N/A   Scattered Clouds
8:55 PM 77.5 °F - 72.3 °F 84% 29.98 in 10.0 mi South 4.6 mph - N/A   Scattered Clouds
9:15 PM 77.0 °F - 72.1 °F 85% 29.98 in 10.0 mi Calm Calm - N/A   Clear
9:35 PM 76.1 °F - 71.8 °F 86% 29.98 in 10.0 mi Calm Calm - N/A   Clear
9:55 PM 75.6 °F - 71.6 °F 87% 29.99 in 10.0 mi South 3.5 mph - N/A   Clear
10:15 PM 75.2 °F - 71.6 °F 89% 29.99 in 10.0 mi Calm Calm - N/A   Clear
10:35 PM 74.7 °F - 71.6 °F 90% 30.00 in 10.0 mi Calm Calm - N/A   Clear
10:55 PM 74.7 °F - 71.6 °F 90% 30.00 in 10.0 mi Calm Calm - N/A   Clear
11:15 PM 74.7 °F - 71.6 °F 90% 30.01 in 10.0 mi Calm Calm - N/A   Clear
11:35 PM 74.3 °F - 71.6 °F 91% 30.01 in 10.0 mi Calm Calm - N/A   Clear
11:55 PM 74.3 °F - 71.6 °F 91% 30.01 in 10.0 mi Calm Calm - N/A   Clear